FW2001 Weather Reports


Display with metric or nautical units.
time (UTC)temp
F
wind
direction
speed
MPH
gust
MPH
rain 1hr
in
rain 24hr
in
rain mn
in
humidity
%
barometer
mb
20260506134329 55 343 0.0 0.0 0.00 0.00 0.00 61 1021.1
20260506133828 55 353 0.0 0.0 0.00 0.00 0.00 61 1021.1
20260506133328 55 353 0.0 0.0 0.00 0.00 0.00 60 1021.1
20260506132828 55 353 0.0 0.0 0.00 0.00 0.00 61 1021.1
20260506131829 55 0 0.0 0.0 0.00 0.00 0.00 60 1021.0
20260506130828 55 350 0.0 0.0 0.00 0.00 0.00 60 1020.9
20260506130327 55 286 0.0 0.0 0.00 0.00 0.00 60 1021.0
20260506125827 55 286 0.0 0.0 0.00 0.00 0.00 60 1020.8
20260506124827 55 285 0.0 0.0 0.00 0.00 0.00 60 1020.8
20260506124327 55 285 0.0 0.0 0.00 0.00 0.00 60 1020.8
20260506123827 55 285 0.0 0.0 0.00 0.00 0.00 60 1020.8
20260506123328 55 286 0.0 0.0 0.00 0.00 0.00 60 1020.8
20260506122826 55 283 0.0 0.0 0.00 0.00 0.00 60 1020.7
20260506122326 55 283 0.0 0.0 0.00 0.00 0.00 60 1020.8
20260506121826 55 283 0.0 0.0 0.00 0.00 0.00 60 1020.7
20260506121326 55 283 0.0 0.0 0.00 0.00 0.00 60 1020.7
20260506120824 55 283 0.0 0.0 0.00 0.00 0.00 60 1020.6
20260506120325 55 283 0.0 0.0 0.00 0.00 0.00 60 1020.7
20260506115826 55 283 0.0 0.0 0.00 0.00 0.00 59 1020.5
20260506114826 55 312 0.0 0.0 0.00 0.00 0.00 60 1020.6
20260506114325 55 343 0.0 0.0 0.00 0.00 0.00 59 1020.5
20260506113826 55 343 0.0 0.0 0.00 0.00 0.00 59 1020.5
20260506113325 55 298 0.0 0.0 0.00 0.00 0.00 59 1020.5
20260506112825 55 298 0.0 0.0 0.00 0.00 0.00 59 1020.4
20260506112323 55 298 0.0 0.0 0.00 0.00 0.00 59 1020.5
20260506111325 55 13 0.0 0.0 0.00 0.00 0.00 59 1020.3
20260506110825 55 13 0.0 0.0 0.00 0.00 0.00 59 1020.3
20260506110325 55 351 0.0 0.0 0.00 0.00 0.00 59 1020.2
20260506105326 55 351 0.0 0.0 0.00 0.00 0.00 59 1020.2
20260506104824 55 310 0.0 0.0 0.00 0.00 0.00 59 1020.2
20260506103823 55 319 0.0 0.0 0.00 0.00 0.00 60 1020.1
20260506103324 55 278 0.0 0.0 0.00 0.00 0.00 60 1020.0
20260506102823 55 278 0.0 0.0 0.00 0.00 0.00 60 1020.1
20260506102325 55 0 0.0 0.0 0.00 0.00 0.00 60 1020.0
20260506101823 55 0 0.0 0.0 0.00 0.00 0.00 60 1020.0
20260506101323 55 334 0.0 0.0 0.00 0.00 0.00 60 1020.0
20260506095822 55 11 0.0 0.0 0.00 0.00 0.00 61 1019.9
20260506094822 54 347 0.0 0.0 0.00 0.00 0.00 62 1020.0
20260506094322 54 347 0.0 0.0 0.00 0.00 0.00 62 1020.1
20260506093821 54 317 0.0 0.0 0.00 0.00 0.00 62 1020.1
20260506093320 54 343 0.0 0.0 0.00 0.00 0.00 63 1020.1
20260506092823 54 254 0.0 0.0 0.00 0.00 0.00 63 1020.1
20260506091820 54 250 0.0 0.0 0.00 0.01 0.00 63 1020.1
20260506091321 54 250 0.0 0.0 0.00 0.01 0.00 63 1020.0
20260506090821 53 250 0.0 0.0 0.00 0.01 0.00 64 1020.0
20260506090320 53 250 0.0 0.0 0.00 0.01 0.00 64 1020.0
20260506085820 53 247 0.0 0.0 0.00 0.02 0.00 64 1019.9
20260506085320 53 244 0.0 0.0 0.00 0.02 0.00 64 1020.0
20260506084820 53 244 0.0 0.0 0.00 0.02 0.00 64 1020.0
20260506084319 53 243 0.0 0.0 0.00 0.02 0.00 64 1020.0
20260506083319 53 243 0.0 0.0 0.00 0.02 0.00 64 1020.0
20260506082819 52 288 0.0 0.0 0.00 0.02 0.00 64 1020.1
20260506081819 52 288 0.0 0.0 0.00 0.02 0.00 64 1020.1
20260506081319 52 288 0.0 0.0 0.00 0.02 0.00 64 1020.1
20260506080321 52 288 0.0 0.0 0.00 0.03 0.00 64 1020.0
20260506073319 52 288 0.0 0.0 0.00 0.05 0.00 64 1019.7
20260506072319 51 288 0.0 0.0 0.00 0.06 0.00 64 1019.6
20260506071819 51 288 0.0 0.0 0.00 0.07 0.00 64 1019.6
20260506071319 51 288 0.0 0.0 0.00 0.07 0.00 64 1019.7
20260506070812 51 288 0.0 0.0 0.00 0.07 0.00 64 1019.6
20260506070312 51 288 0.0 0.0 0.00 0.07 0.00 64 1019.6
20260506062301 52 288 0.0 0.0 0.00 0.08 0.07 64 1019.4
20260506061802 52 288 0.0 0.0 0.00 0.08 0.07 64 1019.4
20260506061303 52 288 0.0 0.0 0.00 0.08 0.07 64 1019.3
20260506060801 52 288 0.0 0.0 0.00 0.08 0.07 64 1019.3
20260506060303 52 288 0.0 0.0 0.00 0.08 0.07 64 1019.2
20260506051302 53 0 0.0 2.0 0.00 0.12 0.07 64 1019.0
20260506050802 54 0 0.0 1.0 0.00 0.12 0.07 64 1019.0
20260506044802 54 0 0.0 2.0 0.00 0.14 0.07 63 1018.8
20260506043803 55 0 0.0 0.0 0.00 0.16 0.07 63 1018.8
20260506043302 55 0 0.0 1.0 0.00 0.17 0.07 63 1018.6
20260506042803 55 0 0.0 1.0 0.00 0.18 0.07 63 1018.6
20260506042305 56 0 0.0 1.0 0.00 0.18 0.07 63 1018.6
20260506041804 56 0 0.0 1.0 0.00 0.19 0.07 63 1018.4
20260506041302 56 0 0.0 2.0 0.00 0.20 0.07 63 1018.3
20260506040803 56 0 0.0 2.0 0.00 0.20 0.07 62 1018.3
20260506040302 56 0 0.0 3.0 0.00 0.20 0.07 62 1018.2
20260506035802 56 0 2.0 3.0 0.00 0.20 0.07 62 1018.0
20260506035305 56 329 1.0 5.0 0.00 0.20 0.07 62 1018.0
20260506034802 57 323 1.0 6.0 0.00 0.21 0.07 61 1017.8
20260506034302 57 300 2.0 6.0 0.00 0.21 0.07 61 1017.7
20260506033802 57 341 2.0 4.0 0.00 0.21 0.07 61 1017.6
20260506033302 57 238 0.0 4.0 0.00 0.21 0.07 61 1017.7
20260506032803 57 354 1.0 7.0 0.00 0.21 0.07 60 1017.6
20260506032307 58 306 3.0 7.0 0.00 0.22 0.07 60 1017.4
20260506031802 58 299 1.0 5.0 0.00 0.22 0.07 60 1017.4
20260506031306 58 305 2.0 5.0 0.00 0.22 0.07 60 1017.4
20260506030802 58 313 2.0 5.0 0.00 0.22 0.07 59 1017.3
20260506030302 58 343 2.0 5.0 0.00 0.22 0.07 59 1017.2
20260506025801 58 312 2.0 5.0 0.00 0.22 0.07 59 1017.1
20260506025305 58 302 3.0 7.0 0.00 0.22 0.07 58 1017.1
20260506024804 59 293 3.0 10.0 0.00 0.22 0.07 58 1017.1
20260506024301 59 300 4.0 10.0 0.00 0.22 0.07 58 1017.0
20260506023301 59 334 4.0 9.0 0.00 0.22 0.07 58 1017.0
20260506022803 59 334 3.0 7.0 0.00 0.22 0.07 58 1017.0
20260506022305 59 285 2.0 7.0 0.00 0.22 0.07 58 1016.9
20260506021302 60 355 4.0 9.0 0.00 0.22 0.07 58 1016.8
20260506020804 60 324 4.0 10.0 0.00 0.22 0.07 58 1016.7
20260506020302 60 269 3.0 10.0 0.00 0.22 0.07 58 1016.7
20260506015803 60 345 4.0 9.0 0.00 0.22 0.07 58 1016.6
20260506015306 60 0 4.0 9.0 0.00 0.22 0.07 58 1016.6
20260506014804 60 245 4.0 10.0 0.00 0.22 0.07 58 1016.6
20260506014302 61 283 4.0 10.0 0.00 0.22 0.07 58 1016.6
20260506013802 61 268 4.0 10.0 0.00 0.22 0.07 58 1016.7
20260506013304 61 240 3.0 9.0 0.00 0.22 0.07 57 1016.6
20260506012801 61 345 4.0 10.0 0.00 0.22 0.07 57 1016.6
20260506012307 61 255 4.0 10.0 0.00 0.22 0.07 57 1016.6
20260506011802 61 269 4.0 10.0 0.00 0.22 0.07 57 1016.6
20260506010802 61 286 5.0 10.0 0.00 0.22 0.07 56 1016.6
20260506010302 61 358 4.0 10.0 0.00 0.22 0.07 56 1016.5
20260506005802 61 248 4.0 11.0 0.00 0.22 0.07 56 1016.5
20260506005309 61 234 5.0 11.0 0.00 0.22 0.07 56 1016.5
20260506004802 62 299 5.0 10.0 0.00 0.22 0.07 56 1016.4
20260506004304 62 268 5.0 10.0 0.00 0.22 0.07 56 1016.4
20260506003802 62 313 5.0 12.0 0.00 0.22 0.07 56 1016.4
20260506003303 62 309 5.0 14.0 0.00 0.22 0.07 56 1016.2
20260506002802 62 272 6.0 14.0 0.00 0.22 0.07 56 1016.3
20260506002302 62 285 8.0 14.0 0.00 0.22 0.07 56 1016.4
20260506001802 62 330 5.0 13.0 0.00 0.22 0.07 56 1016.3
20260506001302 62 282 5.0 13.0 0.00 0.22 0.07 57 1016.2
20260506000803 62 288 5.0 13.0 0.00 0.22 0.07 57 1016.2
20260506000302 61 38 7.0 14.0 0.00 0.22 0.07 57 1016.1
20260505235803 62 278 7.0 16.0 0.00 0.22 0.07 56 1016.2
20260505235305 62 289 7.0 16.0 0.00 0.22 0.07 56 1016.3
20260505234802 62 283 6.0 14.0 0.00 0.22 0.07 55 1016.3
20260505234302 62 300 5.0 12.0 0.00 0.22 0.07 56 1016.2
20260505233302 62 0 6.0 10.0 0.00 0.22 0.07 56 1016.2
20260505232305 62 279 4.0 9.0 0.00 0.22 0.07 55 1016.2
20260505231802 63 355 5.0 10.0 0.00 0.22 0.07 55 1016.2
20260505231302 63 341 5.0 12.0 0.00 0.22 0.07 55 1016.1
20260505230802 63 303 5.0 12.0 0.00 0.22 0.07 55 1016.1
20260505230303 63 347 3.0 11.0 0.00 0.22 0.07 55 1016.1
20260505225803 63 0 4.0 13.0 0.00 0.22 0.07 54 1016.2
20260505225301 64 0 6.0 13.0 0.00 0.22 0.07 53 1016.1
20260505224803 64 306 5.0 11.0 0.00 0.22 0.07 53 1016.2
20260505224302 65 292 6.0 11.0 0.00 0.22 0.07 52 1016.1
20260505223802 65 261 5.0 9.0 0.00 0.22 0.07 52 1016.1
20260505223303 65 212 2.0 9.0 0.00 0.22 0.07 51 1016.1
20260505222803 65 330 3.0 10.0 0.00 0.22 0.07 51 1016.1
20260505221802 65 351 5.0 11.0 0.00 0.22 0.07 51 1016.2
20260505221304 66 283 4.0 7.0 0.00 0.22 0.07 51 1016.2
20260505220802 65 288 4.0 7.0 0.00 0.22 0.07 51 1016.3
20260505220303 65 290 3.0 9.0 0.00 0.22 0.07 50 1016.2
20260505215305 66 354 3.0 7.0 0.00 0.22 0.07 50 1016.3
20260505214801 66 320 3.0 6.0 0.00 0.22 0.07 49 1016.3
20260505214302 66 279 2.0 6.0 0.00 0.22 0.07 49 1016.3
20260505213801 66 340 2.0 10.0 0.00 0.22 0.07 50 1016.5
20260505213303 66 354 3.0 10.0 0.00 0.22 0.07 49 1016.4
20260505212803 67 299 5.0 9.0 0.00 0.22 0.07 48 1016.4
20260505212301 66 310 5.0 9.0 0.00 0.22 0.07 49 1016.4
20260505211302 65 109 3.0 10.0 0.00 0.22 0.07 52 1016.5
20260505210803 65 313 5.0 10.0 0.00 0.22 0.07 52 1016.6
20260505210302 64 271 3.0 9.0 0.00 0.22 0.07 52 1016.6
20260505205803 64 250 4.0 6.0 0.00 0.22 0.07 52 1016.6
20260505205305 64 298 2.0 6.0 0.00 0.22 0.07 53 1016.7
20260505204803 63 312 2.0 9.0 0.00 0.22 0.07 52 1016.7
20260505204304 63 310 3.0 9.0 0.00 0.22 0.07 53 1016.7
20260505203802 63 338 3.0 5.0 0.00 0.22 0.07 53 1016.7
20260505203304 63 265 3.0 7.0 0.00 0.22 0.07 54 1016.7
20260505202804 62 200 3.0 9.0 0.00 0.22 0.07 54 1016.7
20260505202306 62 262 3.0 9.0 0.00 0.22 0.07 54 1016.7
20260505201803 62 282 4.0 9.0 0.00 0.22 0.07 54 1016.8
20260505200803 62 303 4.0 9.0 0.00 0.22 0.07 54 1016.8
20260505200303 62 278 3.0 7.0 0.00 0.22 0.07 55 1016.9
20260505195802 62 299 2.0 7.0 0.00 0.22 0.07 55 1016.9
20260505195305 62 293 3.0 7.0 0.00 0.22 0.07 55 1016.9
20260505194801 62 345 3.0 9.0 0.00 0.22 0.07 55 1016.9
20260505194301 62 266 3.0 9.0 0.00 0.22 0.07 55 1016.9
20260505193803 62 288 4.0 9.0 0.00 0.22 0.07 55 1016.9
20260505193301 62 235 4.0 9.0 0.00 0.22 0.07 54 1016.9
20260505192801 62 292 4.0 9.0 0.00 0.22 0.07 54 1017.0
20260505192301 63 326 4.0 9.0 0.00 0.22 0.07 53 1016.9
20260505191801 63 331 3.0 6.0 0.00 0.22 0.07 54 1016.9
20260505191301 63 279 3.0 9.0 0.00 0.22 0.07 54 1017.0
20260505190801 63 292 4.0 9.0 0.00 0.22 0.07 54 1017.0
20260505190301 63 331 3.0 7.0 0.00 0.22 0.07 55 1016.9
20260505185801 62 18 3.0 5.0 0.00 0.22 0.07 54 1016.8
20260505185300 62 248 2.0 9.0 0.00 0.22 0.07 54 1016.7
20260505184800 62 295 2.0 9.0 0.00 0.22 0.07 55 1016.7
20260505184300 62 288 4.0 10.0 0.00 0.22 0.07 54 1016.7
20260505183800 61 233 3.0 12.0 0.00 0.22 0.07 54 1016.9
20260505182759 61 340 4.0 10.0 0.00 0.22 0.07 55 1016.8
20260505182259 60 0 6.0 10.0 0.00 0.22 0.07 57 1016.8
20260505181759 60 305 3.0 9.0 0.00 0.22 0.07 56 1016.8
20260505181259 60 351 3.0 7.0 0.00 0.22 0.07 56 1016.8
20260505180759 60 310 4.0 7.0 0.00 0.22 0.07 56 1016.8
20260505180300 60 255 2.0 6.0 0.00 0.22 0.07 57 1016.8
20260505175759 59 202 2.0 7.0 0.00 0.22 0.07 57 1016.8
20260505175259 59 300 4.0 7.0 0.00 0.22 0.07 57 1016.8
20260505174758 59 327 3.0 7.0 0.00 0.22 0.07 57 1016.8
20260505173753 59 292 3.0 9.0 0.00 0.22 0.07 57 1016.6
20260505173248 59 272 4.0 11.0 0.00 0.22 0.07 57 1016.5
20260505172745 59 354 3.0 11.0 0.00 0.22 0.07 57 1016.5
20260505172243 59 252 4.0 10.0 0.00 0.22 0.07 57 1016.5
20260505170741 59 247 4.0 7.0 0.00 0.22 0.07 58 1016.5
20260505170242 58 285 2.0 7.0 0.00 0.22 0.07 59 1016.4
20260505165743 58 357 4.0 7.0 0.00 0.22 0.07 60 1016.5
20260505165236 57 238 2.0 6.0 0.00 0.22 0.07 60 1016.5
20260505164737 57 262 1.0 6.0 0.00 0.22 0.07 60 1016.6
20260505164237 57 0 2.0 5.0 0.00 0.22 0.07 60 1016.7
20260505163735 57 293 2.0 6.0 0.00 0.22 0.07 61 1016.7
20260505163235 56 0 3.0 9.0 0.00 0.22 0.07 62 1016.6
20260505162735 56 333 3.0 9.0 0.00 0.22 0.07 62 1016.5
20260505161733 56 276 1.0 4.0 0.00 0.22 0.07 64 1016.5
20260505161232 56 309 1.0 4.0 0.00 0.22 0.07 65 1016.4
20260505160731 56 323 2.0 6.0 0.00 0.22 0.07 65 1016.5
20260505160231 56 324 2.0 7.0 0.00 0.22 0.07 66 1016.3
20260505153231 55 329 3.0 6.0 0.00 0.22 0.07 69 1016.1
20260505152732 54 251 1.0 6.0 0.00 0.22 0.07 69 1016.1
20260505152231 54 347 2.0 6.0 0.00 0.22 0.07 69 1016.2
20260505151731 54 278 2.0 5.0 0.00 0.22 0.07 69 1016.1
20260505151231 54 278 2.0 4.0 0.00 0.22 0.07 69 1016.1
20260505150231 54 285 1.0 5.0 0.00 0.22 0.07 69 1015.9
20260505140231 53 278 0.0 2.0 0.00 0.22 0.07 69 1015.9